Location: The Saddle
(36.8333°N, 80.3417°W)
Time: 20:33:04
(UTC-05:00)

X-37B - Visible Passes

Search period start: 28 November 2023 00:00
Search period end: 08 December 2023 00:00
Orbit: 277 x 277 km, 45.0° (Epoch: 01 November)

Date Brightness Start Highest point End Pass type
(mag) Time Alt. Az. Time Alt. Az. Time Alt. Az.
28 Nov 0.7 17:59:58 10° SW 18:02:16 37° SE 18:03:24 22° E visible
29 Nov -0.2 18:00:28 10° WSW 18:02:55 87° SSE 18:04:12 24° ENE visible
30 Nov 0.6 18:01:15 10° W 18:03:37 44° NNW 18:04:55 21° NE visible
01 Dec 1.5 18:02:14 10° W 18:04:23 26° NNW 18:05:36 17° NNE visible
02 Dec 2.0 18:03:21 10° WNW 18:05:12 18° NNW 18:06:15 15° NNE visible
03 Dec 2.3 18:04:33 10° NW 18:06:02 15° N 18:06:53 13° NNE visible
04 Dec 2.4 18:05:42 10° NW 18:06:56 13° N 18:07:31 12° N visible
05 Dec 2.4 18:06:41 10° NNW 18:07:50 12° N 18:08:11 12° N visible
06 Dec 2.3 18:07:25 10° NNW 18:08:43 13° N 18:08:53 13° N visible
07 Dec 2.0 18:07:58 10° NNW 18:09:36 16° NNE 18:09:39 16° NNE visible
